Powrót do katalogu

NOAA 7 DEB

AktywnyPO
NORAD 12560·DEBRIS·🇺🇸 United States

Wystrzelony Jun 23, 1981 z Vandenberg Space Force Base

Loading…

Następne Przeloty (najbliższe 24 godziny)

TLE

ŚwieżeSource: Space-Track

Epoka: Sep 14, 2026, 15:39 UTC

1 12560U 81059C   26257.65236476  .00002581  00000-0  48257-3 0  9993
2 12560  98.9581  35.6182 0002748  74.6994 298.1409 14.65878780370604

Śledź NOAA 7 DEB w czasie rzeczywistym z AllMySat

Download on the App Store